Back to catalog

SKIF-D

AliveCommunicationsPO
NORAD 54153·PAYLOAD·🇷🇺 Russia

Launched Oct 22, 2022 from Vostochny Cosmodrome

Loading…

Next Passes (next 24 hours)

TLE

FreshSource: Space-Track

Epoch: Sep 14, 2026, 04:39 UTC

1 54153U 22139D   26257.19387493  .00000023  00000-0  00000-0 0  9996
2 54153  89.9450  96.6360 0007774 163.9103 196.1856  5.00429695 68564

Track SKIF-D in real time with AllMySat

Download on the App Store